Weather in Barabash

Russia / Primorsky Krai     43°11′27″N   131°29′35″E
temp.,
°C
wind,
m/s
gust,
m/s
humid.,
%
clouds,
%
prec.,
mm/h
press.,
hPa
HPBL,
m
16 may, sun
sun1601:00+10n1292100 2.9 101063
04:00+10nnw2289100 2.9 100934
07:00+10nnw2284100 0.0 100939
10:00+14n136699 0.0 1008223
13:00+20ne3532100 0.0 10061471
16:00+19ene3542100 0.0 1004676
19:00+16w0165100 0.0 100313
22:00+13nw2270100 0.0 100428
17 may, mon
mon1701:00+12nw2265100 0.0 100439
04:00+11nw2263100 0.0 100440
07:00+11nw2364100 0.0 100555
10:00+20n1435100 0.0 1005754
13:00+24e252299 0.0 10042520
16:00+23sse4331100 0.0 1004829
19:00+19s26497 0.0 1004349
22:00+12wsw21641 0.0 100712
18 may, tue
tue1801:00+11w11670 0.0 100712
04:00+10n00700 0.0 100810
07:00+11nw00720 0.0 100823
10:00+20sse22440 0.0 1008394
13:00+25s46280 0.0 10061619
16:00+23sse47350 0.0 1006699
19:00+17sse36580 0.0 1007265
22:00+9sse229943 0.0 100964
19 may, wed
wed1901:00+9s1297100 0.1 1010164
04:00+10sw129891 1.1 1009243
07:00+10sse129590 0.1 1010229
10:00+14sse228023 0.1 1010339
13:00+22sse45474 0.0 1008751
16:00+21sse46541 0.0 1008462
19:00+16sse33739 0.1 1009238
22:00+9se129978 0.1 101149
20 may, thu
thu2001:00+10ssw119682 0.0 1012130
04:00+9se119775 0.0 101289
07:00+10sse119574 0.1 101268
10:00+18se2260100 0.1 1012349
13:00+23se34498 0.0 1010565
16:00+22sse464954 0.0 1010535
19:00+16sse34683 0.0 1010258
22:00+9s119954 0.0 101241